weather.gov     
National Weather Service

Terminal Aerodrome Forecast
NWS Homepage
This page is being discontinued on March 12, 2014.
The same data is available at this site. Please update your bookmarks.
Thank you, and we apologize for the inconvenience.
Please send an email to SR-SRH.Webmaster@noaa.gov with any concerns.


Current Version
Previous Version:    01  02  03  04  05  06  07  08  09  10  11  12  13  14  15  16  17  18  19  20  21  22  23  
[Printable]
017
FTUS42 KMLB 221100
TAFDAB
TAF
KDAB 221135Z 2212/2312 08011KT P6SM VCSH SCT040 BKN060 OVC090
     FM221500 07015G23KT P6SM VCSH BKN030 OVC050
     FM221800 07016G24KT P6SM -RA OVC020
     FM230200 07012G16KT 5SM -SHRA BR BKN010=


U.S. Dept. of Commerce
NOAA National Weather Service
1325 East West Highway
Silver Spring, MD 20910
E-mail: w-nws.webmaster@noaa.gov
Page last modified: May 16, 2007
NATIONAL WEATHER SERVICE: for Safety, for Work, for Fun - FOR LIFE